DateTimeUTC,F1_A11,F1_S11,BsB_S11,BsG_S11,BsR_S11,BbsB_S11,BbsG_S11,BbsR_S11,BaB_A11,BaG_A11,BaR_A11,Tu_S11,T_S11,Uu_S11,U_S11,P_S11,T1_A11
2021-02-11T13:00:00Z,00000200,21000000,,,,,,,-000.20,-000.73,-000.10,15.4,23.0,,00.0,0649.1,30.9
2021-02-11T13:01:00Z,00000200,21000000,,,,,,,-000.17,-000.27,-000.29,15.5,23.0,,00.0,0649.1,30.9
2021-02-11T13:02:00Z,00000200,21000000,,,,,,,-000.26,0000.55,-000.04,15.4,23.0,,00.0,0649.1,30.9
2021-02-11T13:03:00Z,00000200,61000000,,,,,,,0000.22,-000.11,0000.25,15.4,23.1,,00.0,0649.1,30.9
2021-02-11T13:04:00Z,00000200,41000000,-000.32,0000.61,0000.30,-000.18,0000.10,-000.09,0000.34,0000.29,0000.24,15.5,22.9,,00.0,0650.0,30.9
2021-02-11T13:05:00Z,00000200,01000000,0000.60,0000.39,0000.28,-000.47,0000.31,0000.13,0000.32,-000.08,0000.04,15.6,22.8,,00.0,0650.1,30.9
2021-02-11T13:06:00Z,00000200,01000000,0000.09,0000.10,0000.28,0000.13,0000.27,0000.19,0000.37,0000.53,0000.26,15.5,22.7,,00.0,0650.1,30.9
2021-02-11T13:07:00Z,00000200,01000000,-000.41,0000.44,0000.16,-000.00,0000.13,0000.13,0000.42,0000.24,0000.22,15.5,22.7,,00.0,0650.0,30.9
2021-02-11T13:08:00Z,00000200,01000000,0000.02,0000.47,0000.42,-000.44,0000.22,0000.02,0000.12,0000.27,0000.06,15.6,22.7,,00.0,0650.1,30.9
2021-02-11T13:09:00Z,00000200,01000000,0000.71,0000.51,0000.09,-000.64,0000.18,0000.05,0000.18,0000.04,0000.44,15.6,22.7,,00.0,0650.1,30.9
2021-02-11T13:10:00Z,00000200,01000000,-000.00,0000.34,0000.29,0000.10,0000.02,0000.18,0000.07,0000.41,0000.02,15.7,22.8,,00.0,0650.1,30.9
2021-02-11T13:11:00Z,00000200,01000000,0000.22,0000.20,0000.27,-000.14,0000.29,0000.41,0000.14,-000.32,-000.08,15.7,22.8,,00.0,0650.2,30.9
2021-02-11T13:12:00Z,00000200,01000000,0001.04,0000.09,0000.47,0000.19,0000.21,0000.12,0000.02,0000.19,0000.04,15.8,22.8,,00.0,0650.2,30.9
2021-02-11T13:13:00Z,00000200,01000000,-000.53,0000.26,-000.11,0000.04,0000.32,0000.17,0000.04,0000.07,0000.09,15.8,22.8,,00.0,0650.2,30.9
2021-02-11T13:14:00Z,00000200,01000000,-000.28,0000.32,0000.17,-000.34,0000.03,0000.00,0000.23,0000.21,0000.13,15.9,22.9,,00.0,0650.2,30.9
2021-02-11T13:15:00Z,00000200,01000000,0000.84,-000.04,0000.19,0000.18,0000.38,0000.09,0000.16,-000.01,0000.23,15.9,22.9,,00.0,0650.2,30.9
2021-02-11T13:16:00Z,00000200,01000000,0000.06,0000.17,0000.14,-000.33,0000.19,0000.22,0000.22,0000.20,-000.16,16.0,22.9,,00.0,0650.3,30.9
2021-02-11T13:17:00Z,00000200,01000000,0000.05,0000.47,0000.24,0000.28,0000.22,-000.07,-000.05,0000.30,0000.44,16.1,23.0,,00.0,0650.3,30.9
2021-02-11T13:18:00Z,00000200,01000000,0000.21,0000.38,0000.46,0000.30,-000.10,0000.04,0000.28,0000.12,-000.15,16.1,23.0,,00.0,0650.2,30.9
2021-02-11T13:19:00Z,00000200,01000000,0000.53,0000.42,-000.02,0000.33,0000.24,0000.06,-000.37,0000.12,0000.17,16.1,23.0,,00.0,0650.2,30.9
2021-02-11T13:20:00Z,00000200,01000000,-000.60,0000.40,0000.12,0000.27,-000.06,-000.10,0000.12,-000.16,-000.21,16.0,23.0,,00.0,0650.3,30.9
2021-02-11T13:21:00Z,00000200,01000000,0000.30,0000.38,0000.25,-000.28,0000.24,-000.03,-000.21,0000.12,0000.04,16.0,23.0,,00.0,0650.2,30.9
2021-02-11T13:22:00Z,00000200,01000000,0000.26,0000.37,0000.34,0000.13,0000.17,0000.03,0000.37,-000.14,-000.15,15.9,22.9,,00.0,0650.2,30.9
2021-02-11T13:23:00Z,00000200,01000000,0000.90,0000.24,0000.24,0000.14,0000.33,-000.10,0000.17,-000.13,-000.04,15.8,22.9,,00.0,0650.2,30.9
2021-02-11T13:24:00Z,00000200,01000000,0000.14,0000.31,0000.50,-000.41,0000.22,0000.12,0000.32,0000.67,0000.24,15.8,22.9,,00.0,0650.3,30.9
2021-02-11T13:25:00Z,00000200,01000000,0000.62,0000.21,0000.05,-000.04,0000.47,-000.22,-000.11,0000.01,0000.36,15.7,22.8,,00.0,0650.3,30.9
2021-02-11T13:26:00Z,00000200,01000000,0000.76,0000.27,0000.38,0000.47,0000.07,-000.03,0000.36,0000.00,-000.11,15.7,22.8,,00.0,0650.3,30.9
2021-02-11T13:27:00Z,00000200,01000000,0000.28,0000.32,0000.14,0000.62,0000.25,-000.19,0000.32,0000.13,0000.23,15.6,22.8,,00.0,0650.3,30.9
2021-02-11T13:28:00Z,00000200,01000000,-000.10,0000.45,0000.15,0000.22,-000.08,0000.02,-000.30,0000.10,-000.06,15.5,22.7,,00.0,0650.3,30.9
2021-02-11T13:29:00Z,00000200,01000000,-000.08,0000.61,0000.34,-000.13,0000.22,-000.20,0000.35,0000.21,0000.47,15.5,22.7,,00.0,0650.3,30.9
2021-02-11T13:30:00Z,00000200,01000000,0000.28,0000.20,0000.26,0000.01,0000.30,-000.38,0000.35,0000.21,0000.06,15.4,22.7,,00.0,0650.3,30.9
2021-02-11T13:31:00Z,00000200,01000000,0000.28,0000.43,0000.17,0000.07,0000.05,0000.30,0000.40,0000.32,0000.17,15.4,22.6,,00.0,0650.3,30.9
2021-02-11T13:32:00Z,00000200,01000000,0000.17,0000.07,-000.06,0000.36,0000.15,-000.16,0000.24,0000.43,-000.19,15.3,22.6,,00.0,0650.3,30.8
2021-02-11T13:33:00Z,00000200,01000000,0000.41,0000.46,0000.50,-000.10,0000.15,-000.09,0000.13,0000.22,0000.63,15.3,22.6,,00.0,0650.3,30.8
2021-02-11T13:34:00Z,00000200,01000000,0000.19,-000.13,0000.24,0000.49,0000.33,0000.10,0000.19,-000.06,-000.21,15.2,22.5,,00.0,0650.2,30.8
2021-02-11T13:35:00Z,00000200,01000000,0000.43,0000.33,0000.37,-000.09,0000.09,0000.19,0000.57,0000.24,0000.33,15.2,22.5,,00.0,0650.2,30.8
2021-02-11T13:36:00Z,00000200,01000000,0000.68,0000.51,0000.30,-000.30,0000.23,0000.00,0000.35,0000.20,0000.40,15.2,22.5,,00.0,0650.1,30.8
2021-02-11T13:37:00Z,00000200,01000000,-000.37,0000.10,-000.05,-000.33,0000.21,0000.32,0000.56,0000.69,0000.45,15.2,22.5,,00.0,0650.2,30.8
2021-02-11T13:38:00Z,00000200,01000000,0000.88,0000.35,-000.07,0000.41,0000.34,0000.03,0000.06,0000.37,0000.26,15.3,22.5,,00.0,0650.3,30.8
2021-02-11T13:39:00Z,00000200,01000000,0000.08,0000.31,0000.20,-000.64,0000.30,0000.18,0000.54,0000.03,-000.06,15.3,22.5,,00.0,0650.3,30.8
2021-02-11T13:40:00Z,00000200,01000000,0001.10,0000.22,0000.21,0000.45,0000.12,0000.17,0000.05,0000.12,0000.12,15.4,22.5,,00.0,0650.3,30.9
2021-02-11T13:41:00Z,00000200,01000000,0000.32,0000.21,0000.30,0000.22,0000.30,0000.08,0000.04,0000.41,0000.30,15.4,22.5,,00.0,0650.3,30.9
2021-02-11T13:42:00Z,00000200,01000000,0001.17,0000.42,0000.10,0000.14,0000.09,0000.01,0000.12,0000.33,0000.32,15.5,22.6,,00.0,0650.3,30.9
2021-02-11T13:43:00Z,00000200,01000000,0000.83,0000.43,0000.32,0000.66,0000.29,-000.13,0000.45,-000.16,0000.03,15.6,22.6,,00.0,0650.4,30.9
2021-02-11T13:44:00Z,00000200,01000000,0000.70,0000.18,0000.14,0000.43,-000.06,0000.03,0000.16,0000.60,0000.08,15.6,22.6,,00.0,0650.4,30.9
2021-02-11T13:45:00Z,00000200,01000000,0000.04,0000.20,0000.28,-000.10,-000.01,0000.19,0000.01,-000.14,0000.15,15.7,22.7,,00.0,0650.4,30.9
2021-02-11T13:46:00Z,00000200,01000000,-000.12,0000.04,0000.57,0000.21,0000.10,0000.42,0000.09,0000.18,-000.17,15.7,22.6,,00.0,0650.3,30.9
2021-02-11T13:47:00Z,00000200,01000000,0000.38,0000.45,0000.22,0000.02,0000.19,0000.20,0000.06,0000.02,-000.02,15.6,22.6,,00.0,0650.3,30.9
2021-02-11T13:48:00Z,00000200,01000000,0000.47,0000.32,0000.31,0000.14,0000.33,0000.27,0000.03,-000.28,0000.24,15.6,22.6,,00.0,0650.3,30.9
2021-02-11T13:49:00Z,00000200,01000000,-000.07,-000.09,0000.09,0000.47,-000.02,-000.11,-000.03,0000.59,0000.01,15.5,22.6,,00.0,0650.3,30.9
2021-02-11T13:50:00Z,00000200,01000000,0000.00,0000.31,0000.55,0000.28,0000.30,0000.42,0000.50,-000.20,0000.16,15.5,22.5,,00.0,0650.3,30.9
2021-02-11T13:51:00Z,00000200,01010000,0000.74,0000.05,0000.25,0000.18,0000.13,0000.15,0000.44,0000.23,0000.37,15.5,22.5,,00.0,0650.3,30.8
2021-02-11T13:52:00Z,00000200,01000000,0000.25,0000.39,0000.28,0000.19,0000.31,0000.03,0000.28,0000.64,0000.30,15.5,22.5,,00.0,0650.3,30.8
2021-02-11T13:53:00Z,00000200,01000000,-000.11,0000.40,0000.21,-000.06,0000.17,0000.01,0000.22,0000.17,0000.21,15.5,22.5,,00.0,0650.3,30.9
2021-02-11T13:54:00Z,00000200,01000000,0000.64,0000.47,0000.04,0000.26,0000.12,0000.19,0000.47,0000.47,0000.06,15.6,22.6,,00.0,0650.3,30.9
2021-02-11T13:55:00Z,00000200,01000000,0000.14,0000.20,0000.09,0000.62,0000.11,0000.08,0000.32,0000.36,0000.52,15.6,22.6,,00.0,0650.4,30.9
2021-02-11T13:56:00Z,00000200,01000000,0000.72,0000.36,0000.28,0000.29,0000.34,-000.16,0000.00,-000.06,-000.28,15.7,22.6,,00.0,0650.3,30.9
2021-02-11T13:57:00Z,00000200,41000000,,,,,,,-000.18,-000.51,-000.11,15.7,22.7,,00.0,0650.3,30.9
2021-02-11T13:58:00Z,00000200,61000000,,,,,,,-000.21,0000.18,-000.07,15.5,22.9,,00.0,0649.5,30.9
2021-02-11T13:59:00Z,00000200,21000000,,,,,,,0000.20,0000.18,0000.39,15.5,23.0,,00.0,0649.5,30.9
